FLOCK 3K-4 (43893 NORAD) Tracking and Keplerian Element Data

This shows tracking and keplerian element data for the satellite.

Feedback or suggestion? Click here.




ElementValue
Catalog43893
NameFLOCK 3K-4
Epoch Orbit316
Epoch Day16.83890397
Epoch Year2019
RAAN286.1708
Inclination97.3
Eccentricity0.0024682
Argument of Perigee171.7974
Mean Anonmoly188.3671
Mean Motion15.23394727
Decay Rate5.57E-06
L11 43893U 18111T 19016.83890397 .00000557 00000-0 26170-4 0 9990
L22 43893 97.3000 286.1708 0024682 171.7974 188.3671 15.23394727 3165

Live tracking and technical data element details for FLOCK 3K-4 (NORAD 43893). FLOCK 3K-4 can be tracked NOW for your location showing map with azimuth and elevation plus other details from your city location.

Track the satellite on the map from your city or location and see movement details for azimuth, elevation, latitude, longitude, range, height, and movement on the map or in text.







IsCatalogInMostPopularTable: catalog: 43893, numindb: 15
Update: records affected: 1



GetName: 43893 FLOCK 3K-4

Hit Count: updated at: Thu, 17 Jan 2019 15:07:35 GMT